Date String (YYYY-MM-DD hh:mm:ss) UTC,Instrument flags,Ambient pressure (hPa),Sample flow (lpm),Bypass flow (lpm),Sample temperature (°C),Ambient temperature (°C),ASC tube jacket temperature (°C),LED temperature (°C),Box temperature (°C),Sample RH (%),Span deviation,Mass concentration (μg/m³),Mass concentration (μg/m³),Mass concentration (μg/m³)
DateTimeUTC,F1_M11,P_M11,Q1_M11,Q2_M11,T1_M11,T2_M11,T3_M11,T4_M11,T5_M11,U1_M11,ZSPAN_M11,X0_M11,X2_M11,X1_M11
2022-04-04 20:00:00,,0815.0,5.01,0.00,26.7,25.9,00.0,35.5,28.5,04.2,0000.0,0011.95,0003.91,0001.91
2022-04-04 20:01:00,,0815.0,5.01,0.00,26.7,25.9,00.0,35.5,28.6,04.3,0000.0,0012.15,0003.94,0001.91
2022-04-04 20:02:00,,0815.0,4.99,0.00,26.7,25.9,00.0,35.5,28.6,04.0,0000.0,0011.81,0003.86,0001.89
2022-04-04 20:03:00,,0814.9,5.01,0.00,26.8,25.9,00.0,35.6,28.6,03.9,0000.0,0011.54,0003.90,0001.91
2022-04-04 20:04:00,,0815.0,4.99,0.00,26.8,25.9,00.0,35.6,28.6,04.1,0000.0,0011.17,0003.94,0001.93
2022-04-04 20:05:00,,0814.9,5.01,0.00,26.8,25.9,00.0,35.6,28.6,03.8,0000.0,0010.19,0003.98,0001.93
2022-04-04 20:06:00,,0815.0,4.98,0.00,26.8,26.0,00.0,35.6,28.6,03.9,0000.0,0010.65,0003.99,0001.95
2022-04-04 20:07:00,,0814.9,5.01,0.00,26.8,26.0,00.0,35.6,28.7,03.8,0000.0,0010.51,0003.96,0001.95
2022-04-04 20:08:00,,0814.9,4.99,0.00,26.8,26.0,00.0,35.6,28.7,03.8,0000.0,0010.23,0003.93,0001.95
2022-04-04 20:09:00,,0815.0,5.00,0.00,26.8,26.0,00.0,35.6,28.6,03.8,0000.0,0009.63,0003.91,0001.93
2022-04-04 20:10:00,,0815.0,5.01,0.00,26.9,26.0,00.0,35.7,28.7,03.8,0000.0,0009.59,0003.90,0001.92
2022-04-04 20:11:00,,0815.0,4.99,0.00,26.9,26.0,00.0,35.7,28.7,03.8,0000.0,0009.64,0003.93,0001.91
2022-04-04 20:12:00,,0815.0,5.02,0.00,26.9,26.0,00.0,35.7,28.7,03.9,0000.0,0009.60,0003.91,0001.88
2022-04-04 20:13:00,,0814.9,4.99,0.00,26.9,26.0,00.0,35.7,28.7,03.8,0000.0,0009.93,0003.93,0001.88
2022-04-04 20:14:00,,0814.8,5.00,0.00,26.9,26.0,00.0,35.7,28.7,04.2,0000.0,0010.12,0004.01,0001.87
2022-04-04 20:15:00,,0814.7,5.00,0.00,26.9,26.0,00.0,35.7,28.7,04.2,0000.0,0010.26,0004.04,0001.85
2022-04-04 20:16:00,,0814.7,4.99,0.00,26.9,26.1,00.0,35.7,28.7,04.0,0000.0,0010.04,0003.99,0001.85
2022-04-04 20:17:00,,0814.7,5.01,0.00,26.9,26.1,00.0,35.7,28.7,03.9,0000.0,0009.34,0003.97,0001.85
2022-04-04 20:18:00,,0814.8,4.98,0.00,27.0,26.1,00.0,35.8,28.8,04.2,0000.0,0009.37,0003.98,0001.86
2022-04-04 20:19:00,,0814.8,5.01,0.00,27.0,26.1,00.0,35.8,28.8,04.3,0000.0,0009.80,0004.01,0001.85
2022-04-04 20:20:00,,0814.9,5.01,0.00,27.0,26.1,00.0,35.8,28.8,04.4,0000.0,0010.21,0004.06,0001.87
2022-04-04 20:21:00,,0814.9,4.99,0.00,27.0,26.2,00.0,35.8,28.8,04.3,0000.0,0010.56,0004.14,0001.89
2022-04-04 20:22:00,,0814.9,5.01,0.00,27.0,26.2,00.0,35.8,28.8,04.1,0000.0,0010.44,0004.11,0001.90
2022-04-04 20:23:00,,0815.0,4.99,0.00,27.0,26.2,00.0,35.8,28.8,04.1,0000.0,0010.32,0004.09,0001.92
2022-04-04 20:24:00,,0815.0,4.99,0.00,27.0,26.2,00.0,35.8,28.8,04.2,0000.0,0010.13,0004.11,0001.93
2022-04-04 20:25:00,,0814.7,5.01,0.00,27.1,26.2,00.0,35.9,28.9,04.1,0000.0,0010.05,0004.05,0001.93
2022-04-04 20:26:00,,0814.7,5.01,0.00,27.1,26.2,00.0,35.9,28.9,04.0,0000.0,0009.95,0003.98,0001.93
2022-04-04 20:27:00,,0814.6,4.99,0.00,27.1,26.2,00.0,35.9,28.9,04.2,0000.0,0010.14,0003.98,0001.93
2022-04-04 20:28:00,,0814.6,5.01,0.00,27.1,26.2,00.0,35.9,28.9,04.3,0000.0,0010.78,0004.01,0001.95
2022-04-04 20:29:00,,0814.6,4.99,0.00,27.1,26.2,00.0,35.9,28.9,04.6,0000.0,0011.35,0004.09,0001.99
2022-04-04 20:30:00,,0814.4,5.00,0.00,27.1,26.2,00.0,35.9,29.0,04.7,0000.0,0011.76,0004.16,0002.00
2022-04-04 20:31:00,,0814.3,5.00,0.00,27.1,26.2,00.0,35.9,28.9,04.7,0000.0,0011.52,0004.23,0002.02
2022-04-04 20:32:00,,0814.3,5.01,0.00,27.1,26.2,00.0,35.9,29.0,04.8,0000.0,0011.50,0004.25,0002.02
2022-04-04 20:33:00,,0814.4,4.99,0.00,27.1,26.2,00.0,35.9,29.0,04.6,0000.0,0011.91,0004.34,0002.03
2022-04-04 20:34:00,,0814.5,5.01,0.00,27.1,26.2,00.0,36.0,28.9,04.6,0000.0,0012.29,0004.38,0002.04
2022-04-04 20:35:00,,0814.5,5.00,0.00,27.1,26.2,00.0,36.0,28.9,04.7,0000.0,0012.27,0004.38,0002.07
2022-04-04 20:36:00,,0814.4,4.99,0.00,27.1,26.2,00.0,36.0,28.9,04.8,0000.0,0012.26,0004.37,0002.07
2022-04-04 20:37:00,,0814.0,5.02,0.00,27.1,26.2,00.0,36.0,28.9,05.0,0000.0,0012.33,0004.40,0002.08
2022-04-04 20:38:00,,0814.1,5.00,0.00,27.1,26.2,00.0,36.0,29.0,04.9,0000.0,0012.39,0004.44,0002.10
2022-04-04 20:39:00,,0814.1,5.01,0.00,27.1,26.2,00.0,36.0,29.0,05.0,0000.0,0011.99,0004.47,0002.12
2022-04-04 20:40:00,,0814.2,4.98,0.00,27.2,26.2,00.0,36.0,29.0,05.0,0000.0,0011.63,0004.41,0002.10
2022-04-04 20:41:00,,0814.2,5.01,0.00,27.1,26.2,00.0,36.0,29.0,04.8,0000.0,0011.21,0004.38,0002.12
2022-04-04 20:42:00,,0814.0,5.00,0.00,27.1,26.2,00.0,36.0,28.9,05.0,0000.0,0011.13,0004.34,0002.12
2022-04-04 20:43:00,,0814.2,4.99,0.00,27.1,26.2,00.0,36.0,28.9,05.0,0000.0,0011.21,0004.30,0002.11
2022-04-04 20:44:00,,0814.1,5.01,0.00,27.1,26.2,00.0,36.0,29.0,05.0,0000.0,0011.12,0004.27,0002.10
2022-04-04 20:45:00,,0814.0,5.02,0.00,27.2,26.2,00.0,36.0,29.0,05.1,0000.0,0011.00,0004.27,0002.09
2022-04-04 20:46:00,,0814.0,4.99,0.00,27.2,26.2,00.0,36.0,29.0,05.3,0000.0,0011.38,0004.28,0002.07
2022-04-04 20:47:00,,0814.0,5.01,0.00,27.2,26.2,00.0,36.0,28.9,05.3,0000.0,0012.13,0004.37,0002.10
2022-04-04 20:48:00,,0813.8,5.00,0.00,27.2,26.2,00.0,36.0,29.0,05.3,0000.0,0012.75,0004.40,0002.12
2022-04-04 20:49:00,,0813.8,4.99,0.00,27.2,26.2,00.0,36.0,29.0,05.3,0000.0,0012.81,0004.44,0002.14
2022-04-04 20:50:00,,0813.8,5.00,0.00,27.2,26.2,00.0,36.1,29.0,05.1,0000.0,0012.64,0004.40,0002.12
2022-04-04 20:51:00,,0813.9,5.01,0.00,27.2,26.3,00.0,36.1,29.0,05.3,0000.0,0012.54,0004.35,0002.12
2022-04-04 20:52:00,,0813.8,4.99,0.00,27.2,26.3,00.0,36.1,29.0,05.4,0000.0,0012.20,0004.30,0002.10
2022-04-04 20:53:00,,0813.7,4.99,0.00,27.2,26.3,00.0,36.1,29.0,05.5,0000.0,0012.19,0004.32,0002.11
2022-04-04 20:54:00,,0814.0,5.01,0.00,27.2,26.3,00.0,36.1,29.0,05.4,0000.0,0011.92,0004.29,0002.11
2022-04-04 20:55:00,,0813.6,4.99,0.00,27.2,26.3,00.0,36.1,29.0,05.2,0000.0,0012.61,0004.25,0002.14
2022-04-04 20:56:00,,0813.6,5.02,0.00,27.2,26.3,00.0,36.1,29.0,05.2,0000.0,0012.58,0004.24,0002.16
2022-04-04 20:57:00,,0813.7,4.99,0.00,27.2,26.3,00.0,36.1,29.0,05.2,0000.0,0012.14,0004.20,0002.15
2022-04-04 20:58:00,,0813.5,5.01,0.00,27.2,26.3,00.0,36.1,29.0,05.4,0000.0,0011.34,0004.13,0002.14
2022-04-04 20:59:00,,0813.6,5.01,0.00,27.2,26.3,00.0,36.1,29.0,05.4,0000.0,0011.06,0004.19,0002.16
